Skip Page Navigation
NASA JPL Caltech
NASA Logo - Jet Propulsion Laboratory + View the NASA Portal
+ Center for Near-Earth Object Studies
JPL Home Earth Solar System Stars & Galaxies Technology
JPL Solar System Dynamics
BODIES ORBITS EPHEMERIDES TOOLS PHYSICAL DATA DISCOVERY FAQ SITE MAP
IMPORTANT: The SSD Announcement email list is now available. Major changes are coming in the near future, including possible hostname and/or URL changes. To be notified of such changes, subscribe to this email list.

Please visit this page for more details.


JPL Small-Body Database Browser
Search: [ help ]  
97596 (2000 EM43)
Classification: Main-belt Asteroid          SPK-ID: 2097596
Ephemeris | Orbit Diagram | Orbital Elements | Mission Design | Physical Parameters | Discovery Circumstances | Close-Approach Data ]

[ show orbit diagram ]
Orbital Elements at Epoch 2458600.5 (2019-Apr-27.0) TDB
Reference: JPL 18 (heliocentric ecliptic J2000)
 Element Value Uncertainty (1-sigma)   Units 
e .1403436933526511 4.1207e-08  
a 3.061787555877305 2.2466e-08 au
q 2.632084982024297 1.2732e-07 au
i 1.100278333508519 4.2744e-06 deg
node 100.0031530373639 0.00029268 deg
peri 40.54527334133749 0.00029343 deg
M 238.1302739566833 2.0014e-05 deg
tp 2459262.951886762758
(2021-Feb-17.45188676)
0.00011053 TDB
period 1956.865638229364
5.36
2.1538e-05
5.897e-08
d
yr
n .1839676638840364 2.0248e-09 deg/d
Q 3.491490129730312 2.5619e-08 au
  Orbit Determination Parameters
   # obs. used (total)      657  
   data-arc span      6772 days (18.54 yr)  
   first obs. used      2000-03-01  
   last obs. used      2018-09-15  
   planetary ephem.      DE431  
   SB-pert. ephem.      SB431-N16  
   condition code      0  
   norm. resid. RMS      .54735  
   source      ORB  
   producer      Otto Matic  
   solution date      2018-Oct-04 03:48:16  

Additional Information
 Earth MOID = 1.64572 au 
 Jupiter MOID = 1.53071 au 
 T_jup = 3.218 
[ show covariance matrix ]

Ephemeris | Orbit Diagram | Orbital Elements | Mission Design | Physical Parameters | Discovery Circumstances | Close-Approach Data ]

Physical Parameter Table
Parameter Symbol Value Units Sigma Reference Notes
absolute magnitude H 14.9   n/a MPO366346  
diameter diameter 6.017 km 0.173 urn:nasa:pds:neowise_diameters_albedos::2.0[mainbelt] (http://adsabs.harvard.edu/abs/2011ApJ...741...68M)  
geometric albedo albedo 0.064   0.007 urn:nasa:pds:neowise_diameters_albedos::2.0[mainbelt] (http://adsabs.harvard.edu/abs/2011ApJ...741...68M)  

97596 (2000 EM43)          Discovered 2000-Mar-08 by LINEAR at Socorro
Reference: 20050224/Numbers.arcLast Updated: 2005-02-28

[ show close-approach data ]
Ephemeris | Orbit Diagram | Orbital Elements | Mission Design | Physical Parameters | Discovery Circumstances | Close-Approach Data ]
ABOUT SSD CREDITS/AWARDS PRIVACY/COPYRIGHT GLOSSARY LINKS
FirstGov 2019-Oct-19 05:58 UT
(server date/time)  
NASA Home Page
Site Manager:   Ryan S. Park
Webmaster  Alan B. Chamberlin